Tracking 29892 objects as of 21-Nov-2024
HD Live streaming from Space Station
objects crossing your sky now

NIMBUS 2 DEB

Track NIMBUS 2 DEB now!
10-day predictions


NORAD ID: 37889
Int'l Code: 1966-040AU
Perigee: 1,044.1 km
Apogee: 1,117.9 km
Inclination: 100.5 °
Period: 106.7 minutes
Semi major axis: 7452 km
RCS: 0.0261 m2 (small)
Launch date: May 15, 1966
Source: United States (US)
Launch site: AIR FORCE WESTERN TEST RANGE (AFWTR)

Note: This is SATELLITE DEBRIS
Your satellite tracking list
Your tracking list is empty




NASA's NSSDC Master Catalog

Two Line Element Set (TLE):
1 37889U 66040AU  24314.18959384  .00006801  00000-0  10753-1 0  9994
2 37889 100.5350 285.5056 0049545 147.1961 226.2401 13.49558034733101
Source of the keplerian elements: AFSPC